DELTA 1 DEB, 7039

Orbit data source: Space-Track

DELTA 1 DEB, 7039 is space debris in SSO originally from a launch on Tue, 06 Nov 1973 UTC launched from the Air Force Western Test Range (AFWTR). Debris objects in space refer to the collection of defunct objects orbiting the Earth. Examples of debris include non-operational satellites, rocket bodies, and fragments generated from explosions, collisions, or faulty payload assembly.

Loading next visibility...
Identifier
7039, 1973-086AF
Orbit
SSO
Last TLE update
12 hours ago
Origin
Manufacturer
Unknown
Mission
Spacecraft
Bus & Motor
Unknown
Mass
Unknown
Launch date (UTC)
1973-11-06 (52 years ago)
Launch vehicle
Unknown
Launch site
Air Force Western Test Range (AFWTR)
Object type
Payload
Rocket body
Debris
Shape & HBR
Unknown
Radar Cross Section
Medium (>0.1 m² and <1 m²)

Expand to show TLE details & history

TLE from 12 hours ago
0 DELTA 1 DEB
1 07039U 73086AF  25181.88491106  .00000004  00000-0  34414-3 0  9990
2 07039 102.5157 161.9775 0128481 224.3415 194.2189 12.49546969353238
Epoch: 2025-06-30T21:14Z
TLE epoch observation values (Epoch: 2025-06-30T21:14:16.315Z)
Latitude
56.16489°
Longitude
-95.02035°
Altitude
1,573.314 km
Speed
7.042 km/s
True Right ascension
09h 30m 56s
True Declination
56° 01' 19"
Sunlit
Object was in daylight at epoch
Visualization orbit readout
Latitude
58.84582°
Longitude
126.1703°
Altitude
1,500.252 km
Speed
7.109 km/s
Apparent Right ascension
05h 11m 09s
Apparent Declination
33° 03' 29"
Sunlit
Object is in daylight
Visualization observer readout
Local Sidereal Time
20:44:00
Azimuth
42.191° NE
Elevation
-2.003°
Doppler factor
1
Orbital elements
Apogee altitude
1,564.74 km
Perigee altitude
1,363.227 km
Semi-major axis
7,842.121 km
Eccentricity
0.01285
Inclination
102.5157°
RAAN
161.9775°
Arg. of periapsis
224.3415°
True anomaly
Unknown
Mean anomaly
194.2189°
Eccentric anomaly
Unknown
Mean motion
3.12531 °/min
Orbital period
115.19 mins
BSTAR
0.00034414
Loading maneuver chart data...
Loading SW <> Apogee altitude chart data...
Loading historical data...
Loading historical data...
Loading historical data...
Loading historical data...
Loading historical data...
Loading historical data...
Loading historical data...

DELTA 1 DEB Visibility forecast

Observer location: undefined°, undefined°

Span
Click to sort rows by Start time (UTC) header in descending order
Start Az.
Max El. time (UTC)
Max El. Az.
Max El.
End time (UTC)
End Az.
15 mins2025-07-01 11:00:46.615Z30.199° NE2025-07-01 11:07:46.615Z91.858° ESE36.897°2025-07-01 11:15:46.615Z174.789° S
13 mins2025-07-01 12:54:46.615Z0.236° NNE2025-07-01 13:00:46.615Z304.951° NW32.086°2025-07-01 13:07:46.615Z238.987° WSW
8 mins2025-07-01 20:12:46.615Z74.785° E2025-07-01 20:16:46.615Z44.402° NE16.952°2025-07-01 20:20:46.615Z15.085° NNE
15 mins2025-07-01 22:00:46.615Z146.424° SSE2025-07-01 22:07:46.615Z73.14° E43.354°2025-07-01 22:15:46.615Z346.752° N
12 mins2025-07-01 23:55:46.615Z217.478° SW2025-07-02 00:01:46.615Z268.056° W24.184°2025-07-02 00:07:46.615Z315.031° NNW
|